TABS, Texas Automated Buoy System, NOAA HAZMAT, Ocean Observatory, Real Time Oceanographic Data Supporting Oil Spill Prevention and Response

Texas General Land Office  Texas General
 Land Office
 Oil Spill Prevention
 & Response
Texas Automated Buoy System
Real Time Ocean Observations
Supporting Oil Spill Prevention and Response since 1995
Geochemical and Environmental Research Group

TABS Buoy J -- Texas Automated Buoy System

TABS Buoy J Conditions at 10/22/2014 23:30 UTC (10/22/2014 18:30 CDT)
26° 11.4840'N   97° 3.0420'W
AA3900 DCS - sensor depth 2m
Anemometer height: 4m
Water Depth: 68 feet (20 meters)
Speed: 11.37 cm/s (0.22 kts) Direction: 121 °T (ESE) Water Temp: 28°C (82 °F)
System Voltage: 12.4 V Signal Strength: -2.0 dB Ping Count: 139
Wind: 6.3 m/s (12.3 kts)
          From 80°T (E)
Air Temp: 26 °C (79 °F)
Relative Humidity:  84 %
Pressure: 1015.0 mb (29.97 inHg)

  


IMPORTANT: Notice to Mariners


Today's System Data (download)

   Date   |  Time  | VBatt |  SigStr| Comp | Nping| Tx | Ty | ADCP | ADCP | VBatt |
          |  (UTC) | (Oper)|   (dB) | (°M) |      |    |    | Volt | Curr |(sleep)|
==========+========+=======+========+======+======+====+====+======+======+=======+
10/22/2014 00:00:00    12.3   -1.79    95.8    126   -3    -4    6.0    3.0   -0.1
10/22/2014 00:30:00    12.3   -1.86    92.3    135   -4    -4    6.0    3.0   -0.1
10/22/2014 01:00:00    12.3   -1.81    91.5    138   -4    -5    6.0    3.0   -0.1
10/22/2014 01:30:00    12.2   -1.80   102.1    136   -3    -4    5.0    4.0   -0.1
10/22/2014 02:00:00    12.3   -1.78    95.6    133   -4    -4    6.0    4.0   -0.1
10/22/2014 02:30:00    12.2   -1.78    95.4    127   -4    -4    5.0    4.0   -0.1
10/22/2014 03:00:00    12.2   -1.80    93.6    130   -4    -4    6.0    3.0   -0.1
10/22/2014 03:30:00    12.2   -1.80    96.1    130   -3    -4    5.0    4.0   -0.1
10/22/2014 04:00:00    12.2   -1.81    93.4    132   -4    -4    5.0    4.0   -0.1
10/22/2014 04:30:00    12.2   -1.78    88.8    135   -4    -4    5.0    3.0   -0.1
10/22/2014 05:00:00    12.2   -1.77    90.8    133   -3    -4    6.0    3.0   -0.1
10/22/2014 05:30:00    12.2   -1.77    94.5    130   -3    -4    5.0    3.0   -0.1
10/22/2014 06:00:00    12.2   -1.80    90.7    132   -3    -3    5.0    3.0   -0.1
10/22/2014 06:30:00    12.2   -1.80    95.0    129   -3    -4    5.0    3.0   -0.1
10/22/2014 07:00:00    12.2   -1.80    96.0    141   -2    -4    5.0    3.0   -0.1
10/22/2014 07:30:00    12.2   -1.77    94.0    137   -3    -4    5.0    3.0   -0.1
10/22/2014 08:00:00    12.1   -1.82    88.6    119   -3    -3    5.0    3.0   -0.1
10/22/2014 08:30:00    12.1   -1.78    96.5    111   -3    -4    5.0    3.0   -0.1
10/22/2014 09:00:00    12.1   -1.81    96.1    135   -3    -4    5.0    3.0   -0.1
10/22/2014 09:30:00    12.1   -1.81    96.9    148   -3    -4    5.0    3.0   -0.1
10/22/2014 10:00:00    12.1   -1.81    94.9    135   -3    -4    5.0    3.0   -0.1
10/22/2014 10:30:00    12.1   -1.80    91.5    142   -3    -3    5.0    3.0   -0.1
10/22/2014 11:00:00    12.1   -1.82    93.0    134   -3    -4    5.0    3.0   -0.1
10/22/2014 11:30:00    12.1   -1.80    93.2    132   -3    -4    5.0    3.0   -0.1
10/22/2014 12:00:00    12.1   -1.83    92.4    131   -3    -4    5.0    3.0   -0.1
10/22/2014 12:30:00    12.1   -1.88    93.2    134   -4    -4    5.0    3.0   -0.1
10/22/2014 13:00:00    12.2   -1.84    96.6    136   -3    -4    5.0    3.0   -0.1
10/22/2014 13:30:00    12.5   -1.84    92.9    128   -3    -4    5.0    3.0   -0.1
10/22/2014 14:00:00    12.7   -1.82    93.9    133   -3    -4    5.0    3.0   -0.1
10/22/2014 14:30:00    12.7   -1.79    92.7    141   -3    -4    5.0    2.0   -0.1
10/22/2014 15:00:00    12.8   -1.79    93.8    132   -2    -3    5.0    2.0   -0.1
10/22/2014 15:30:00    12.7   -1.79    94.3    143   -3    -4    5.0    2.0   -0.1
10/22/2014 16:00:00    12.8   -1.79   100.0    130   -2    -4    5.0    3.0   -0.1
10/22/2014 16:30:00    12.8   -1.80   100.6    130   -2    -3    5.0    3.0   -0.1
10/22/2014 17:00:00    12.8   -1.82   100.5    136   -2    -4    5.0    3.0   -0.1
10/22/2014 17:30:00    12.7   -1.88    99.5    123   -3    -4    5.0    3.0   -0.1
10/22/2014 18:00:00    12.7   -1.89   103.9    125   -3    -4    5.0    3.0   -0.1
10/22/2014 18:30:00    12.7   -1.84   104.5    134   -2    -4    5.0    3.0   -0.1
10/22/2014 19:00:00    12.8   -1.84   107.0    140   -2    -4    5.0    3.0   -0.1
10/22/2014 19:30:00    12.8   -1.87   104.7    139   -2    -4    5.0    3.0   -0.1
10/22/2014 20:00:00    12.8   -1.85   102.0    132   -3    -4    5.0    3.0   -0.1
10/22/2014 20:30:00    12.7   -1.86    98.4    142   -3    -4    5.0    3.0   -0.1
10/22/2014 21:00:00    12.8   -1.87    99.8    137   -3    -4    5.0    3.0   -0.1
10/22/2014 21:30:00    12.7   -1.92   107.0    139   -2    -4    5.0    3.0   -0.1
10/22/2014 22:00:00    12.9   -1.95   100.3    129   -2    -4    5.0    3.0   -0.1
10/22/2014 22:30:00    12.9   -1.95    92.5    133   -2    -3    5.0    2.0   -0.1
10/22/2014 23:00:00    12.8   -1.99    99.8    148   -3    -3    5.0    3.0   -0.1
10/22/2014 23:30:00    12.4   -1.99    99.5    139   -2    -3    4.0    2.0   -0.1